Time,TemperatureF,DewpointF,PressureIn,WindDirection,WindDirectionDegrees,WindSpeedMPH,WindSpeedGustMPH,Humidity,HourlyPrecipIn,Conditions,Clouds,dailyrainin,SoftwareType,DateUTC
2018-01-23 00:08:00,49.0,44.0,29.58,SE,127,1.0,6.0,84,-99.99,,,-99.99,,2018-01-23 05:08:00,
2018-01-23 00:37:00,48.0,43.0,29.58,SSE,167,0.0,2.0,84,-99.99,,,-99.99,,2018-01-23 05:37:00,
2018-01-23 01:07:00,46.0,41.0,29.58,SSW,210,0.0,4.0,81,-99.99,,,-99.99,,2018-01-23 06:07:00,
2018-01-23 01:36:00,46.0,38.0,29.59,SSE,155,2.0,10.0,73,-99.99,,,-99.99,,2018-01-23 06:36:00,
2018-01-23 02:08:00,45.0,38.0,29.59,SSW,204,0.0,6.0,75,-99.99,,,-99.99,,2018-01-23 07:08:00,
2018-01-23 02:36:00,43.0,36.0,29.59,SSW,194,0.0,1.0,75,-99.99,,,-99.99,,2018-01-23 07:36:00,
2018-01-23 03:07:00,42.0,36.0,29.60,West,270,0.0,0.0,79,-99.99,,,-99.99,,2018-01-23 08:07:00,
2018-01-23 03:36:00,40.0,35.0,29.60,SSE,147,0.0,0.0,83,-99.99,,,-99.99,,2018-01-23 08:36:00,
2018-01-23 04:07:00,41.0,35.0,29.59,SSE,163,0.0,1.0,79,-99.99,,,-99.99,,2018-01-23 09:07:00,
2018-01-23 04:36:00,43.0,34.0,29.59,SSE,155,1.0,7.0,71,-99.99,,,-99.99,,2018-01-23 09:36:00,
2018-01-23 05:08:00,43.0,34.0,29.59,SSE,166,3.0,10.0,71,-99.99,,,-99.99,,2018-01-23 10:08:00,
2018-01-23 05:37:00,43.0,34.0,29.61,SSE,148,1.0,17.0,71,-99.99,,,-99.99,,2018-01-23 10:37:00,
2018-01-23 06:08:00,40.0,35.0,29.64,SW,218,0.0,4.0,82,-99.99,,,-99.99,,2018-01-23 11:08:00,
2018-01-23 06:37:00,38.0,34.0,29.66,WNW,293,2.0,11.0,85,-99.99,,,-99.99,,2018-01-23 11:37:00,
2018-01-23 07:07:00,37.0,34.0,29.66,South,172,0.0,8.0,87,-99.99,,,-99.99,,2018-01-23 12:07:00,
2018-01-23 08:07:00,36.0,32.0,29.69,SSE,158,0.0,6.0,85,-99.99,,,-99.99,,2018-01-23 13:07:00,
2018-01-23 08:36:00,36.0,33.0,29.70,SSW,201,0.0,4.0,87,-99.99,,,-99.99,,2018-01-23 13:36:00,
2018-01-23 09:08:00,36.0,33.0,29.72,SSE,155,0.0,5.0,89,-99.99,,,-99.99,,2018-01-23 14:08:00,
2018-01-23 09:36:00,35.0,32.0,29.73,SE,127,2.0,11.0,90,-99.99,,,-99.99,,2018-01-23 14:36:00,
2018-01-23 10:07:00,36.0,33.0,29.76,SW,219,0.0,6.0,87,-99.99,,,-99.99,,2018-01-23 15:07:00,
2018-01-23 10:37:00,36.0,33.0,29.77,SE,127,1.0,7.0,88,-99.99,,,-99.99,,2018-01-23 15:37:00,
2018-01-23 12:08:00,36.0,33.0,29.80,West,267,2.0,9.0,90,-99.99,,,-99.99,,2018-01-23 17:08:00,
2018-01-23 12:37:00,37.0,34.0,29.80,SW,228,0.0,11.0,88,-99.99,,,-99.99,,2018-01-23 17:37:00,
2018-01-23 13:07:00,39.0,35.0,29.80,SSE,162,0.0,10.0,84,-99.99,,,-99.99,,2018-01-23 18:07:00,
2018-01-23 13:37:00,38.0,33.0,29.81,SE,142,2.0,12.0,83,-99.99,,,-99.99,,2018-01-23 18:37:00,
2018-01-23 14:08:00,38.0,33.0,29.82,South,170,4.0,15.0,83,-99.99,,,-99.99,,2018-01-23 19:08:00,
2018-01-23 14:36:00,37.0,33.0,29.83,WSW,247,4.0,19.0,85,-99.99,,,-99.99,,2018-01-23 19:36:00,
2018-01-23 15:08:00,37.0,34.0,29.85,South,173,5.0,14.0,87,-99.99,,,-99.99,,2018-01-23 20:08:00,
2018-01-23 16:08:00,36.0,34.0,29.89,SE,128,1.0,10.0,93,-99.99,,,-99.99,,2018-01-23 21:08:00,
2018-01-23 16:37:00,36.0,34.0,29.91,SSE,156,0.0,5.0,94,-99.99,,,-99.99,,2018-01-23 21:37:00,
2018-01-23 17:08:00,36.0,34.0,29.93,WSW,239,2.0,10.0,94,-99.99,,,-99.99,,2018-01-23 22:08:00,
2018-01-23 17:37:00,36.0,34.0,29.95,SSW,204,0.0,6.0,94,-99.99,,,-99.99,,2018-01-23 22:37:00,
2018-01-23 18:39:00,34.0,32.0,29.98,WSW,238,0.0,0.0,94,-99.99,,,-99.99,,2018-01-23 23:39:00,
2018-01-23 19:07:00,34.0,32.0,29.99,SSW,206,0.0,1.0,94,-99.99,,,-99.99,,2018-01-24 00:07:00,